Location: Eschertshofen
(49.3064°N, 11.5756°E)
Time: 12:01:27
(UTC+00:00)

Iridium 26 - Pass Details

Date: 03 October 2021
Orbit: 772 x 775 km, 86.4° (Epoch: 15 October)

Event Time Altitude Azimuth Distance (km) Brightness Sun altitude
Exits shadow 19:39:56 44° 19° (NNE) 1,059 6.2 -28.0°
Drops below altitude 10° 19:43:31 10° 7° (N) 2,331 8.2 -28.5°
Sets 19:45:53 0° 6° (N) 3,263 9.1 -28.8°
